Waarnemingen

Advertentie
Mijn weer
St-Hubert, België (6476): temperatuur & dauwpunt: 08.08.2018 17:00:00 - 14.08.2018 17:00:00 (CEST)St-Hubert, België (6476): windsnelheid & windstoten: 08.08.2018 17:00:00 - 14.08.2018 17:00:00 (CEST)St-Hubert, België (6476): windrichting: 08.08.2018 17:00:00 - 14.08.2018 17:00:00 (CEST)St-Hubert, België (6476): luchtdruk: 08.08.2018 17:00:00 - 14.08.2018 17:00:00 (CEST)St-Hubert, België (6476): zicht: 08.08.2018 17:00:00 - 14.08.2018 17:00:00 (CEST)
Datum & Tijd tt [°C] td [°C] ff [km/u] ff [kn] fx [km/u] fx [kn] dd ppp [hPa] vv [km]
14.08.2018 17:00:00 18,0 14,4 14 8 - - W 1017,2 24
14.08.2018 16:00:00 17,5 14,7 11 6 25 14 W 1017,2 19
14.08.2018 15:00:00 17,6 14,6 14 8 22 12 WZW 1016,7 19
14.08.2018 14:00:00 15,7 14,5 14 8 - - W 1017,3 7
14.08.2018 13:00:00 15,6 14,2 14 8 22 12 W 1016,8 7
14.08.2018 12:00:00 14,1 13,5 14 8 22 12 W 1016,8 -
14.08.2018 11:00:00 13,5 13,3 14 8 - - W 1016,6 0,1
14.08.2018 10:00:00 13,0 12,7 11 6 22 12 WZW 1016,1 0,1
14.08.2018 09:00:00 12,8 12,6 18 10 22 12 WZW 1015,5 0,1
14.08.2018 08:00:00 12,5 12,2 14 8 - - WZW 1014,9 0,1
14.08.2018 07:00:00 12,4 12,2 14 8 18 10 W 1014,4 0,1
14.08.2018 06:00:00 12,5 12,2 14 8 22 12 W 1013,7 0,1
14.08.2018 05:00:00 12,6 12,2 14 8 - - W 1013,5 0,3
14.08.2018 04:00:00 12,5 12,1 14 8 22 12 W 1013,2 0,6
14.08.2018 03:00:00 12,6 12,1 14 8 22 12 W 1013,0 6
14.08.2018 02:00:00 13,0 12,7 14 8 - - W 1012,8 0,6
14.08.2018 01:00:00 13,4 13,0 14 8 22 12 W 1012,3 3,3
14.08.2018 00:00:00 13,7 13,2 14 8 22 12 W 1011,8 3,6
13.08.2018 23:00:00 14,0 13,6 14 8 - - W 1011,1 1,5
13.08.2018 22:00:00 14,2 13,5 14 8 22 12 W 1010,8 30
13.08.2018 21:00:00 14,6 13,6 14 8 29 16 W 1010,2 45
13.08.2018 20:00:00 15,2 13,6 14 8 - - W 1009,3 45
13.08.2018 19:00:00 16,1 13,6 22 12 36 19 W 1009,1 45
13.08.2018 18:00:00 16,0 13,4 25 14 36 19 W 1008,7 40
13.08.2018 17:00:00 16,9 14,0 25 14 - - WZW 1008,2 35
13.08.2018 16:00:00 17,2 13,5 25 14 36 19 WZW 1008,0 30
13.08.2018 15:00:00 16,1 14,8 18 10 40 21 WZW 1008,6 15
13.08.2018 14:00:00 15,0 13,2 29 16 - - WZW 1008,7 19
13.08.2018 13:00:00 14,5 13,6 29 16 47 25 W 1008,9 7
13.08.2018 12:00:00 15,6 13,9 18 10 40 21 ZW 1008,3 35
13.08.2018 11:00:00 15,6 14,1 22 12 - - ZW 1008,2 28
13.08.2018 10:00:00 14,5 13,9 18 10 29 16 Z 1008,5 13
13.08.2018 09:00:00 13,8 13,2 14 8 22 12 Z 1009,0 21
13.08.2018 08:00:00 13,5 13,2 7 4 - - ZW 1008,6 2,9
13.08.2018 07:00:00 13,6 12,9 11 6 25 14 ONO 1007,5 30
13.08.2018 06:00:00 14,1 12,5 18 10 25 14 NW 1009,2 40
13.08.2018 05:00:00 14,4 12,1 14 8 - - WNW 1009,2 40
13.08.2018 04:00:00 14,6 13,0 0 0 32 18 N 1008,5 16
13.08.2018 03:00:00 18,4 8,9 18 10 25 14 ZZO 1007,7 45
13.08.2018 02:00:00 18,5 7,8 18 10 - - ZZO 1008,5 45
13.08.2018 01:00:00 18,1 7,9 18 10 25 14 ZZO 1009,4 45
13.08.2018 00:00:00 19,3 7,9 14 8 25 14 ZO 1009,8 50
12.08.2018 23:00:00 18,5 8,1 11 6 - - ZO 1010,4 45
12.08.2018 22:00:00 17,5 7,4 7 4 14 8 ZO 1011,1 45
12.08.2018 21:00:00 18,8 8,2 11 6 14 8 Z 1011,3 45
12.08.2018 20:00:00 21,6 8,2 11 6 - - ZZW 1010,8 45
12.08.2018 19:00:00 22,7 7,7 14 8 29 16 Z 1011,1 45
12.08.2018 18:00:00 22,3 7,1 14 8 29 16 ZZW 1011,8 30
12.08.2018 17:00:00 22,2 7,0 14 8 - - Z 1012,6 40
12.08.2018 16:00:00 22,1 7,6 11 6 29 16 Z 1013,3 35
12.08.2018 15:00:00 22,1 7,2 14 8 32 18 Z 1014,0 35
12.08.2018 14:00:00 21,0 6,9 18 10 - - ZW 1014,8 35
12.08.2018 13:00:00 20,8 7,6 14 8 25 14 Z 1015,7 45
12.08.2018 12:00:00 19,6 8,3 11 6 25 14 ZZW 1016,3 35
12.08.2018 11:00:00 18,8 8,9 14 8 - - Z 1016,9 40
12.08.2018 10:00:00 17,2 8,4 14 8 25 14 Z 1017,6 35
12.08.2018 09:00:00 15,4 7,9 14 8 22 12 Z 1018,2 45
12.08.2018 08:00:00 13,3 7,4 14 8 - - ZZO 1019,0 40
12.08.2018 07:00:00 11,4 6,3 14 8 18 10 ZZO 1019,6 45
12.08.2018 06:00:00 10,6 6,0 14 8 14 8 ZZO 1020,1 45
12.08.2018 05:00:00 9,9 5,5 11 6 - - ZZO 1021,0 50
12.08.2018 04:00:00 9,8 5,0 11 6 11 6 ZO 1021,5 50
12.08.2018 03:00:00 11,7 4,9 7 4 7 4 ZZO 1021,5 50
12.08.2018 02:00:00 11,6 5,4 4 2 - - Z 1022,2 45
12.08.2018 01:00:00 10,7 6,2 0 0 4 2 N 1022,7 45
12.08.2018 00:00:00 11,1 5,6 4 2 7 4 WZW 1023,2 45
11.08.2018 23:00:00 12,8 4,9 4 2 - - NW 1023,2 45
11.08.2018 22:00:00 13,2 6,1 4 2 11 6 WNW 1023,1 45
11.08.2018 21:00:00 15,5 6,4 7 4 22 12 W 1022,5 45
11.08.2018 20:00:00 18,2 6,5 14 8 - - W 1022,0 45
11.08.2018 19:00:00 18,0 5,5 14 8 25 14 W 1022,3 40
11.08.2018 18:00:00 18,2 4,5 18 10 36 19 W 1022,3 40
11.08.2018 17:00:00 18,7 5,0 18 10 - - W 1022,5 40
11.08.2018 16:00:00 18,6 4,9 18 10 32 18 WZW 1022,9 30
11.08.2018 15:00:00 18,2 5,4 14 8 32 18 WZW 1023,2 35
11.08.2018 14:00:00 17,4 5,9 14 8 - - W 1023,6 40
11.08.2018 13:00:00 16,0 5,5 14 8 32 18 W 1023,9 35
11.08.2018 12:00:00 15,8 5,7 11 6 29 16 W 1024,0 40
11.08.2018 11:00:00 14,7 8,0 18 10 - - W 1024,3 40
11.08.2018 10:00:00 13,0 8,3 14 8 25 14 W 1024,5 35
11.08.2018 09:00:00 12,3 10,0 14 8 25 14 WZW 1024,3 23
11.08.2018 08:00:00 10,8 9,7 11 6 - - WZW 1024,3 17
11.08.2018 07:00:00 10,6 10,0 11 6 18 10 W 1023,9 15
11.08.2018 06:00:00 11,0 10,0 14 8 25 14 W 1023,4 23
11.08.2018 05:00:00 11,6 10,1 18 10 - - W 1023,0 35
11.08.2018 04:00:00 11,9 9,4 14 8 29 16 W 1022,8 35
11.08.2018 03:00:00 13,0 7,4 18 10 29 16 W 1022,5 45
11.08.2018 02:00:00 12,4 7,1 14 8 - - WZW 1022,7 45
11.08.2018 01:00:00 12,7 6,7 18 10 29 16 WZW 1022,8 45
11.08.2018 00:00:00 13,6 6,4 14 8 29 16 ZW 1022,5 45
10.08.2018 23:00:00 13,8 6,3 14 8 - - ZW 1022,6 45
10.08.2018 22:00:00 14,1 6,5 14 8 25 14 WZW 1022,7 45
10.08.2018 21:00:00 15,2 6,8 14 8 32 18 ZW 1022,3 45
10.08.2018 20:00:00 16,3 6,7 18 10 - - ZW 1022,1 45
10.08.2018 19:00:00 17,2 5,9 22 12 43 23 ZW 1022,0 40
10.08.2018 18:00:00 18,3 4,9 25 14 36 19 WZW 1022,0 35
10.08.2018 17:00:00 17,1 5,2 22 12 - - ZZW 1022,6 35
10.08.2018 16:00:00 17,0 5,3 25 14 40 21 ZW 1022,8 30
10.08.2018 15:00:00 17,7 5,7 22 12 40 21 ZW 1022,9 40
10.08.2018 14:00:00 17,0 5,6 22 12 - - W 1023,2 40
10.08.2018 13:00:00 15,8 6,9 22 12 36 19 ZW 1023,6 30
10.08.2018 12:00:00 15,7 6,5 22 12 36 19 ZW 1023,5 30
10.08.2018 11:00:00 13,7 7,6 18 10 - - WZW 1023,9 35
10.08.2018 10:00:00 12,8 9,9 18 10 32 18 WZW 1023,9 28
10.08.2018 09:00:00 11,7 9,7 14 8 22 12 ZW 1023,7 20
10.08.2018 08:00:00 10,5 9,5 11 6 - - WZW 1023,7 13
10.08.2018 07:00:00 10,3 9,1 14 8 22 12 ZW 1023,1 14
10.08.2018 06:00:00 10,1 9,1 14 8 22 12 WZW 1022,6 14
10.08.2018 05:00:00 10,2 9,4 11 6 - - WZW 1022,2 11
10.08.2018 04:00:00 10,8 9,9 18 10 25 14 WZW 1021,9 15
10.08.2018 03:00:00 11,1 9,8 18 10 32 18 W 1021,4 26
10.08.2018 02:00:00 11,0 9,7 18 10 - - W 1020,9 30
10.08.2018 01:00:00 10,9 9,6 18 10 32 18 W 1020,2 40
10.08.2018 00:00:00 11,2 9,5 25 14 47 25 W 1019,1 45
09.08.2018 23:00:00 11,7 9,4 29 16 - - W 1018,0 45
09.08.2018 22:00:00 12,7 11,1 22 12 50 27 W 1016,5 45
09.08.2018 21:00:00 14,0 12,0 36 19 50 27 W 1014,7 40
09.08.2018 20:00:00 15,6 13,2 29 16 - - WZW 1013,1 30
09.08.2018 19:00:00 16,8 13,7 36 19 54 29 WZW 1011,8 30
09.08.2018 18:00:00 17,3 15,3 32 18 54 29 ZW 1010,3 24
09.08.2018 17:00:00 18,7 16,0 25 14 - - ZZW 1009,4 29
09.08.2018 16:00:00 19,2 16,3 29 16 50 27 ZZW 1009,1 28
09.08.2018 15:00:00 18,8 16,7 25 14 47 25 ZW 1009,1 22
09.08.2018 14:00:00 17,6 16,8 11 6 - - ZZW 1009,0 -
09.08.2018 13:00:00 18,9 16,4 22 12 32 18 ZO 1008,5 14
09.08.2018 12:00:00 19,6 16,0 22 12 40 21 ZZO 1009,0 18
09.08.2018 11:00:00 19,5 16,2 22 12 - - OZO 1008,8 17
09.08.2018 10:00:00 17,0 15,4 25 14 32 18 OZO 1010,6 11
09.08.2018 09:00:00 15,6 14,1 14 8 43 23 OZO 1012,0 4,0
09.08.2018 08:00:00 16,3 12,7 18 10 - - O 1011,9 20
09.08.2018 07:00:00 15,1 12,3 18 10 32 18 O 1013,0 15
09.08.2018 06:00:00 14,5 12,4 18 10 25 14 O 1013,8 17
09.08.2018 05:00:00 14,8 12,2 14 8 - - ONO 1014,3 29
09.08.2018 04:00:00 14,5 11,6 11 6 18 10 ONO 1014,7 30
09.08.2018 03:00:00 14,6 11,5 14 8 18 10 ONO 1015,3 40
09.08.2018 02:00:00 14,7 11,5 11 6 - - O 1015,8 40
09.08.2018 01:00:00 13,7 11,4 14 8 18 10 O 1016,3 45
09.08.2018 00:00:00 14,7 12,1 7 4 7 4 ONO 1016,4 45
08.08.2018 23:00:00 16,0 11,1 4 2 - - NO 1016,3 45
08.08.2018 22:00:00 17,2 11,2 4 2 11 6 - 1015,9 45
08.08.2018 21:00:00 17,9 12,7 7 4 14 8 NNW 1015,2 40
08.08.2018 20:00:00 18,6 12,7 7 4 - - NNW 1014,6 40
08.08.2018 19:00:00 19,1 13,2 11 6 22 12 W 1014,5 30
08.08.2018 18:00:00 19,9 14,2 11 6 25 14 W 1014,4 29
08.08.2018 17:00:00 19,3 14,1 14 8 - - W 1014,7 28

tt = temperatuur
td = dauwpunt
ff = windsnelheid
fx = windstoten
dd = windrichting
ppp = luchtdruk
vv = zicht

Weerstations in de omgeving